TIME,DELAY(SENSOR),PRES,OXYGEN,RAWTEMP,T(OPTODE),TCPHASE,FLUOR,BETA(BETA700),BETA(BETA412),BETA(BETA440),CDOM,C(CSC),ED(ED411.90),ED(ED443.80),ED(ED489.40),ED(ED554.70),LU(LU412.20),LU(LU443.80),LU(LU489.40),LU(LU555.00),COMP,TILTX,TILTY,CHECK
1368743185,5807,872.2100219726562000,143.4882965087890600,406.3200073242187500,10.4099702835083000,40.4067115783691400,53,113,100,81,73,10685,2146960210,2147519003,2147281792,2147494528,2147086107,2146936941,2147700809,2147122505,1388,-1,9,23629
1368746782,5806,1011.9500122070312000,174.7254028320312500,498.0104980468750000,7.5912017822265625,39.5285110473632800,53,128,104,84,75,10664,2146962468,2147521033,2147294290,2147513197,2147083849,2146923885,2147718793,2147122002,2864,-1,9,10708
1368750382,5806,1029.2600097656250000,188.6488037109375000,511.6937866210937500,7.1662440299987790,38.8248481750488300,52,121,101,82,80,10663,2146961764,2147516800,2147297801,2147516224,2147087515,2146923346,2147719652,2147120978,3561,-1,8,29657
1368753982,5805,1020.7700195312500000,196.2926025390625000,513.8588867187500000,7.0988841056823730,38.3724784851074200,52,129,102,83,79,10670,2146963620,2147520886,2147295890,2147515574,2147084690,2146924644,2147720000,2147122953,3490,-1,9,56009
1368757582,5804,1016.3599853515625000,193.0292968750000000,514.4619750976562000,7.0801119804382320,38.5901489257812500,53,107,98,79,80,10672,2146963382,2147521929,2147292653,2147516534,2147084416,2146923940,2147718226,2147124836,3490,-1,9,52348
1368761182,5804,1017.1199951171875000,200.5682983398437500,514.5009765625000000,7.0788998603820800,38.1185493469238300,52,107,99,79,80,10672,2146959003,2147519250,2147295606,2147512713,2147084708,2146923474,2147722139,2147120658,3573,-1,9,46416
1368764782,5809,1018.2100219726562000,186.1197967529297000,516.4008789062500000,7.0197567939758300,39.0736389160156250,55,103,103,80,80,10674,2146960658,2147515483,2147296768,2147516260,2147084992,2146923858,2147726966,2147123200,61,-1,8,18607
1368768382,5807,1020.5100097656250000,194.1734008789062500,515.2581176757812000,7.0553369522094730,38.5315399169921900,53,106,98,81,80,10664,2146957476,2147522971,2147297133,2147514870,2147086811,2146921801,2147720365,2147121846,454,-1,8,277
1368771982,5805,1025.3399658203125000,187.0102996826172000,515.1015014648438000,7.0602102279663090,38.9922485351562500,51,104,99,80,79,10667,2146964114,2147522715,2147297737,2147514624,2147084114,2146918738,2147718582,2147121618,3108,-1,9,33503
1368775582,5807,1025.4799804687500000,185.2030944824218800,514.8405151367188000,7.0683350563049320,39.1070899963378900,53,129,98,81,80,10666,2146960914,2147519899,2147296804,2147515154,2147084772,2146921709,2147721947,2147121398,213,-1,8,25104
1368779182,5805,1025.5500488281250000,198.7189025878906200,515.1978759765625000,7.0572099685668945,38.2448387145996100,52,112,99,79,81,10665,2146960585,2147514322,2147297490,2147515456,2147084416,2146926765,2147721892,2147121545,2964,-1,8,61451
1368782782,5806,1031.6999511718750000,192.1974945068359400,514.6304931640625000,7.0748701095581055,38.6466484069824200,53,108,102,80,80,10664,2146960457,2147519808,2147298880,2147514934,2147086043,2146922148,2147721965,2147119113,3440,0,9,40386
1368786382,5808,1031.9300537109375000,191.3751983642578000,514.6140136718750000,7.0753841400146480,38.6997184753418000,52,114,101,79,81,10659,2146962697,2147518555,2147296475,2147512630,2147087094,2146923337,2147718518,2147122468,7,0,9,44960
1368789982,5806,1030.0600585937500000,196.4244995117187500,514.9937133789062000,7.0635638236999510,38.3850784301757800,52,113,98,79,80,10636,2146959241,2147514825,2147296850,2147513353,2147085842,2146923072,2147717915,2147121472,2956,-1,8,5365
1368793582,5806,1028.0899658203125000,190.6027069091797000,514.5712280273438000,7.0767159461975100,38.7490501403808600,53,117,100,82,80,10634,2146958784,2147516717,2147295149,2147512256,2147086052,2146925723,2147721234,2147118976,627,0,8,63454
1368797182,5804,1027.7600097656250000,199.3520050048828000,514.8103027343750000,7.0692739486694340,38.1991310119628900,53,114,102,80,80,10637,2146962934,2147517138,2147294244,2147516992,2147083730,2146924379,2147723520,2147117476,2101,-1,8,44721
1368800782,5805,1029.6800537109375000,199.8441925048828000,514.5490722656250000,7.0774021148681640,38.1633796691894500,53,118,99,80,81,10620,2146961709,2147516928,2147296978,2147514185,2147087808,2146925750,2147720557,2147120438,2258,-1,9,60231
1368804382,5805,1026.2900390625000000,200.5706939697265600,514.9354858398438000,7.0653772354125980,38.1263389587402340,52,114,101,81,80,10631,2146961910,2147518345,2147296905,2147512493,2147082724,2146921417,2147720493,2147120265,2497,-1,9,6860
1368807982,5804,1030.0500488281250000,198.6775970458984400,515.0449829101562000,7.0619668960571290,38.2454299926757800,53,116,102,81,80,10611,2146961243,2147517933,2147297289,2147512667,2147084653,2146921920,2147725193,2147118564,2484,-1,9,531
1368811582,5804,1033.4100341796875000,199.3222045898437500,514.9628906250000000,7.0645241737365720,38.2039413452148440,53,120,99,81,79,10613,2146962331,2147517668,2147295853,2147512265,2147083227,2146921216,2147720118,2147124160,2966,-1,9,20829
1368815182,5806,1032.0899658203125000,200.5310058593750000,514.8748168945312000,7.0672659873962400,38.1270103454589840,52,119,101,85,81,10612,2146962331,2147518208,2147298861,2147515456,2147086884,2146927643,2147717952,2147121709,3198,-1,9,5894
1368818782,5806,1024.9899902343750000,192.9396972656250000,510.8059082031250000,7.1938571929931640,38.5317687988281250,53,127,101,83,81,10599,2146960109,2147518171,2147296667,2147512923,2147083163,2146926857,2147719972,2147120896,2735,-1,9,12616
1368822382,5805,1026.1099853515625000,192.2397003173828000,509.8735961914062500,7.2228450775146480,38.5601005554199200,53,130,102,83,80,10589,2146962020,2147520841,2147295945,2147511040,2147087634,2146922468,2147717220,2147120713,2451,-1,8,61036
1368825982,5807,1025.4399414062500000,192.2017059326172000,510.0848083496094000,7.2162799835205080,38.5663108825683600,52,127,101,82,80,10593,2146962688,2147519478,2147295204,2147510546,2147087570,2146926518,2147722569,2147121764,2671,-1,9,55164
1368829582,5803,1028.4599609375000000,189.5805969238281200,509.1438903808594000,7.2455310821533200,38.7188796997070300,52,127,103,83,80,10592,2146961654,2147518985,2147297856,2147514432,2147083483,2146921170,2147718546,2147121170,2494,-1,8,4557
1368833182,5806,1032.0999755859375000,191.1983032226562500,509.5339050292969000,7.2334060668945310,38.6217117309570300,52,132,108,86,80,10590,2146961645,2147518710,2147294555,2147509924,2147080320,2146926006,2147719378,2147124233,2917,-1,9,34342
1368836782,5806,1027.6500244140625000,191.3860015869140600,509.8883056640625000,7.2223901748657230,38.6152305603027340,51,127,128,82,80,10588,2146965019,2147521234,2147295204,2147513280,2147085110,2146922733,2147724900,2147122642,3287,-1,8,59454
1368840382,5805,1024.8900146484375000,191.4046020507812500,510.2468872070312500,7.2112379074096680,38.6209106445312500,53,130,102,83,80,10585,2146963309,2147517156,2147294710,2147513462,2147084937,2146918957,2147720219,2147121581,3464,-1,9,45298
1368843982,5807,1025.8399658203125000,190.5870056152343800,510.1434020996094000,7.2144579887390140,38.6712608337402340,53,134,102,83,80,10574,2146958994,2147516708,2147293376,2147510811,2147088146,2146923136,2147720923,2147123492,100,-1,8,24421
1368847582,5804,1025.0200195312500000,190.2427978515625000,510.9276123046875000,7.1900711059570310,38.7069587707519500,53,139,108,86,80,10573,2146961846,2147520713,2147296210,2147513334,2147085577,2146922669,2147718930,2147118390,3533,0,9,3566
1368851182,5807,1028.9899902343750000,190.2996978759765600,509.8374938964844000,7.2239670753479000,38.6847915649414060,52,128,101,83,81,10572,2146963264,2147517184,2147297051,2147513718,2147084297,2146921874,2147718765,2147121490,561,-1,8,59492
1368854782,5805,1028.4699707031250000,191.6087951660156200,510.2538146972656000,7.2110228538513180,38.6075096130371100,53,136,103,83,81,10565,2146960429,2147519890,2147296548,2147517193,2147085805,2146924096,2147724461,2147121197,859,0,8,42410
1368858382,5804,1035.4499511718750000,189.8159942626953000,509.1366882324219000,7.2457537651062010,38.7037086486816400,52,133,101,85,80,10565,2146963099,2147518473,2147294738,2147514861,2147084516,2146921060,2147717138,2147124160,3126,-1,9,16181
1368861982,5803,1038.3000488281250000,189.4093933105468800,508.2455139160156000,7.2734560966491700,38.7147789001464840,52,131,103,86,80,10561,2146962185,2147520192,2147299821,2147511652,2147086985,2146925110,2147716717,2147121627,207,-1,8,13066
1368865582,5807,1044.8299560546875000,187.7371063232422000,507.3095092773437500,7.3025441169738770,38.8074188232421900,54,133,102,85,81,10551,2146963611,2147515053,2147297051,2147513728,2147084800,2146922176,2147716224,2147119478,35,0,8,65508
1368869182,5807,1030.0300292968750000,173.9219970703125000,495.1288146972656000,7.6805400848388670,39.5355491638183600,54,125,106,82,80,10552,2146960667,2147519634,2147296146,2147513225,2147086683,2146925184,2147714432,2147121773,3352,-1,8,32910
1368872782,5807,1032.9300537109375000,176.2039947509765600,494.0806884765625000,7.7130169868469240,39.3573608398437500,54,128,104,85,81,10548,2146962678,2147520036,2147295186,2147510939,2147085924,2146929307,2147710747,2147122605,236,-1,8,20215
1368876382,5807,1029.0799560546875000,169.8869934082031200,493.3847961425781000,7.7345800399780270,39.7943000793457000,52,133,105,85,80,10528,2146960877,2147518637,2147295012,2147512932,2147083209,2146923565,2147720100,2147120603,39,0,8,42990
1368879982,5809,1028.5100097656250000,169.2866058349609400,494.7388916015625000,7.6926231384277340,39.8596115112304700,53,132,103,85,80,10523,2146956388,2147515190,2147295542,2147509778,2147083300,2146927451,2147716928,2147122139,91,-1,8,17992
1368883582,5808,1024.7399902343750000,168.6725006103515600,495.3111877441406000,7.6748871803283690,39.9145202636718750,53,128,102,86,80,10503,2146960210,2147517357,2147295433,2147510454,2147085101,2146927021,2147715574,2147121627,37,0,8,35443
1368886256,5806,1020.1599731445312000,166.5307006835937500,496.1716003417969000,7.6482157707214355,40.0854797363281250,53,126,104,83,81,10571,2146960804,2147519149,2147295332,2147511341,2147084306,2146933056,2147719113,2147126665,2806,-1,9,48586
